Weather History for Gwinn, MI

Change the Weather History Date:

Monday, January 23, 2012

  Actual Average (KESC) Record (KESC)
Temperature  
Mean Temperature 28 °F -  
Max Temperature 32 °F 27 °F 50 °F (1967)
Min Temperature 23 °F 10 °F -25 °F (1963)
Degree Days  
Heating Degree Days 38    
Moisture  
Dew Point 28 °F    
Average Humidity 91    
Maximum Humidity 95    
Minimum Humidity 82    
Precipitation  
Precipitation 0.19 in - - ()
Sea Level Pressure  
Sea Level Pressure 29.41 in    
Wind  
Wind Speed 1 mph (NW)    
Max Wind Speed 9 mph    
Max Gust Speed -    
Visibility 4 miles    
Events Snow    
Averages and records for this station are not official NWS values.
T = Trace of Precipitation, MM = Missing Value Source: NWS Daily Summary

Daily Weather History Graph

Daily Weather History Graph

Search for Another Location

Airport:

Trip Planner

Search our weather history database for the weather conditions in past years. The results will help you decide how hot, cold, wet, or windy it might be!

Date:

Astronomy

Jan. 23, 2012 Rise Set
Actual Time 8:22 AM EST 5:40 PM EST
Civil Twilight 7:49 AM EST 6:13 PM EST
Nautical Twilight 7:13 AM EST 6:50 PM EST
Astronomical Twilight 6:37 AM EST 7:25 PM EST
Moon 8:14 AM EST (1/23) 6:32 PM EST (1/23)
Length of Visible Light 10h 23m
Length of Day
9h 17m
Waxing Crescent, 0% of the Moon is Illuminated
Jan 23
Waxing Crescent
Jan 30
First Quarter
Feb 7
Full
Feb 14
Last Quarter
Feb 21
New

Hourly Weather History & Observations

Time (EST) Temp. Windchill Dew Point Humidity Pressure Visibility Wind Dir Wind Speed Gust Speed Precip Events Conditions
12:16 AM 30.2 °F - 28.4 °F 93% 29.60 in 3.0 mi Calm Calm - N/A   Overcast
12:37 AM 30.2 °F - 28.4 °F 93% 29.58 in 3.0 mi Calm Calm - N/A   Overcast
12:57 AM 30.2 °F - 28.4 °F 93% 29.55 in 2.5 mi Calm Calm - N/A   Overcast
1:16 AM 30.2 °F - 28.4 °F 93% 29.53 in 2.5 mi Calm Calm - N/A   Overcast
1:37 AM 30.2 °F - 28.4 °F 93% 29.53 in 3.0 mi Calm Calm - N/A   Overcast
1:57 AM 30.2 °F - 28.6 °F 94% 29.55 in 3.0 mi Calm Calm - N/A   Overcast
2:17 AM 30.2 °F - 28.8 °F 94% 29.53 in 3.0 mi Calm Calm - N/A   Overcast
2:37 AM 30.2 °F - 28.8 °F 94% 29.51 in 2.5 mi Calm Calm - N/A   Overcast
2:57 AM 30.2 °F - 28.4 °F 93% 29.51 in 2.5 mi Calm Calm - N/A   Overcast
3:17 AM 30.2 °F - 28.4 °F 93% 29.48 in 2.5 mi Calm Calm - N/A   Overcast
3:37 AM 30.2 °F - 28.4 °F 93% 29.49 in 3.0 mi Calm Calm - N/A   Overcast
3:56 AM 30.2 °F - 28.4 °F 93% 29.50 in 3.0 mi Calm Calm - N/A   Overcast
4:17 AM 30.0 °F - 28.4 °F 94% 29.47 in 1.8 mi Calm Calm - N/A   Overcast
4:37 AM 29.8 °F - 28.4 °F 94% 29.46 in 1.2 mi Calm Calm - N/A   Overcast
4:56 AM 30.2 °F - 28.9 °F 95% 29.44 in 1.8 mi Calm Calm - N/A Snow Light Snow
5:17 AM 30.2 °F - 28.9 °F 95% 29.43 in 3.0 mi Calm Calm - N/A Snow Light Snow
5:36 AM 30.2 °F - 28.6 °F 94% 29.40 in 3.0 mi Calm Calm - N/A Snow Light Snow
5:57 AM 30.2 °F - 28.4 °F 93% 29.38 in 5.0 mi Calm Calm - N/A Snow Light Snow
6:55 AM 30.2 °F - 28.4 °F 93% 29.33 in 1.0 mi Calm Calm - N/A Snow Snow
6:59 AM 30.2 °F - 28.4 °F 93% 29.35 in 0.8 mi Calm Calm - N/A Snow Snow
7:55 AM 30.2 °F - 28.4 °F 93% 29.30 in 10.0 mi Calm Calm - N/A Snow Light Snow
7:59 AM 29.8 °F - 27.9 °F 92% 29.29 in 0.8 mi Calm Calm - 0.07 in Snow Snow
8:50 AM 30.2 °F - 28.4 °F 93% 29.30 in 0.5 mi Calm Calm - N/A Snow Snow
8:59 AM 30.0 °F - 28.4 °F 94% 29.29 in 0.5 mi Calm Calm - 0.08 in Snow Light Snow
9:50 AM 30.2 °F - 28.4 °F 93% 29.26 in 1.2 mi Calm Calm - N/A Snow Light Snow
9:59 AM 30.7 °F - 28.9 °F 93% 29.26 in 1.2 mi Calm Calm - 0.02 in Snow Light Snow
10:50 AM 32.0 °F - 28.4 °F 87% 29.27 in 1.0 mi Calm Calm - N/A Snow Light Snow
10:59 AM 31.8 °F - 29.7 °F 92% 29.26 in 1.2 mi Calm Calm - 0.02 in Snow Light Snow
11:50 AM 32.0 °F - 30.2 °F 93% 29.25 in 3.0 mi Calm Calm - N/A Snow Light Snow
12:50 PM 32.0 °F - 30.2 °F 93% 29.22 in 3.0 mi Calm Calm - N/A Snow Light Snow
1:50 PM 32.0 °F - 30.2 °F 93% 29.21 in 10.0 mi Calm Calm - N/A   Overcast
2:49 PM 32.0 °F - 30.2 °F 93% 29.22 in 5.0 mi Calm Calm - N/A Snow Light Snow
3:50 PM 32.0 °F 25.6 °F 30.2 °F 93% 29.26 in 1.0 mi WNW 6.9 mph - N/A Snow Light Snow
4:50 PM 32.0 °F 25.6 °F 30.2 °F 93% 29.29 in 1.5 mi NW 6.9 mph - N/A Snow Light Snow
5:50 PM 32.0 °F 28.7 °F 30.2 °F 93% 29.34 in 7.0 mi WNW 3.5 mph - N/A Snow Light Snow
6:50 PM 32.0 °F 27.5 °F 28.4 °F 87% 29.38 in 7.0 mi NW 4.6 mph - N/A Snow Light Snow
7:50 PM 30.2 °F 24.3 °F 26.6 °F 86% 29.41 in 10.0 mi NW 5.8 mph - N/A   Overcast
8:50 PM 28.4 °F 19.7 °F 24.8 °F 86% 29.45 in 10.0 mi NW 9.2 mph - N/A   Overcast
9:50 PM 26.6 °F 20.0 °F 23.0 °F 86% 29.48 in 5.0 mi NW 5.8 mph - N/A Snow Light Snow
10:17 PM 27.0 °F - 22.1 °F 82% 29.50 in 10.0 mi Calm Calm - N/A Snow Light Snow
10:37 PM 26.4 °F - 21.6 °F 82% 29.51 in 10.0 mi Calm Calm - N/A Snow Light Snow
10:56 PM 25.3 °F - 21.2 °F 84% 29.52 in 2.5 mi Calm Calm - N/A Snow Light Snow
11:17 PM 24.8 °F - 20.7 °F 84% 29.54 in 2.5 mi Calm Calm - N/A Snow Light Snow
11:37 PM 23.9 °F - 20.1 °F 85% 29.55 in 2.0 mi Calm Calm - N/A Snow Light Snow
11:56 PM 23.0 °F - 19.4 °F 86% 29.56 in 4.0 mi Calm Calm - N/A Snow Light Snow